Time,TemperatureF,DewpointF,PressureIn,WindDirection,WindDirectionDegrees,WindSpeedMPH,WindSpeedGustMPH,Humidity,HourlyPrecipIn,Conditions,Clouds,dailyrainin,SolarRadiationWatts/m^2,SoftwareType,DateUTC
2013-09-07 00:03:00,79.0,66.0,-100.00,SSE,164,4.0,5.0,64,0.00,,,0.00,0.000000,,2013-09-07 05:03:00,
2013-09-07 00:42:00,74.0,66.0,-100.00,East,97,0.0,5.0,76,0.00,,,0.00,0.000000,,2013-09-07 05:42:00,
2013-09-07 00:52:00,74.0,66.0,-100.00,East,97,0.0,5.0,76,0.00,,,0.00,0.000000,,2013-09-07 05:52:00,
2013-09-07 01:02:00,74.0,66.0,-100.00,East,97,0.0,5.0,76,0.00,,,0.00,0.000000,,2013-09-07 06:02:00,
2013-09-07 01:43:00,72.0,66.0,-100.00,NNW,342,0.0,3.0,81,0.00,,,0.00,0.000000,,2013-09-07 06:43:00,
2013-09-07 01:52:00,72.0,66.0,-100.00,NNW,342,0.0,3.0,81,0.00,,,0.00,0.000000,,2013-09-07 06:52:00,
2013-09-07 02:02:00,72.0,66.0,-100.00,NNW,342,0.0,3.0,81,0.00,,,0.00,0.000000,,2013-09-07 07:02:00,
2013-09-07 02:43:00,72.0,66.0,-100.00,East,95,3.0,3.0,82,0.00,,,0.00,0.000000,,2013-09-07 07:43:00,
2013-09-07 02:52:00,72.0,66.0,-100.00,East,95,3.0,3.0,82,0.00,,,0.00,0.000000,,2013-09-07 07:52:00,
2013-09-07 03:02:00,72.0,66.0,-100.00,East,95,3.0,3.0,82,0.00,,,0.00,0.000000,,2013-09-07 08:02:00,
2013-09-07 03:43:00,70.0,66.0,-100.00,ENE,59,0.0,4.0,88,0.00,,,0.00,0.000000,,2013-09-07 08:43:00,
2013-09-07 03:53:00,70.0,66.0,-100.00,ENE,59,0.0,4.0,88,0.00,,,0.00,0.000000,,2013-09-07 08:53:00,
2013-09-07 04:02:00,70.0,66.0,-100.00,ENE,59,0.0,4.0,88,0.00,,,0.00,0.000000,,2013-09-07 09:02:00,
2013-09-07 04:42:00,69.0,66.0,-100.00,NNW,335,2.0,4.0,90,0.00,,,0.00,0.000000,,2013-09-07 09:42:00,
2013-09-07 04:52:00,69.0,66.0,-100.00,NNW,335,2.0,4.0,90,0.00,,,0.00,0.000000,,2013-09-07 09:52:00,
2013-09-07 05:02:00,69.0,66.0,-100.00,NNW,335,2.0,4.0,90,0.00,,,0.00,0.000000,,2013-09-07 10:02:00,
2013-09-07 05:41:00,67.0,66.0,-100.00,East,89,1.0,4.0,95,0.00,,,0.00,0.000000,,2013-09-07 10:41:00,
2013-09-07 05:52:00,67.0,66.0,-100.00,East,89,1.0,4.0,95,0.00,,,0.00,0.000000,,2013-09-07 10:52:00,
2013-09-07 06:03:00,67.0,66.0,-100.00,East,89,1.0,4.0,95,0.00,,,0.00,0.000000,,2013-09-07 11:03:00,
2013-09-07 06:43:00,65.0,64.0,-100.00,NW,313,2.0,4.0,96,0.00,,,0.00,0.000000,,2013-09-07 11:43:00,
2013-09-07 06:52:00,65.0,64.0,-100.00,NW,313,2.0,4.0,96,0.00,,,0.00,0.000000,,2013-09-07 11:52:00,
2013-09-07 07:02:00,65.0,64.0,-100.00,NW,313,2.0,4.0,96,0.00,,,0.00,0.000000,,2013-09-07 12:02:00,
2013-09-07 07:42:00,67.0,66.0,-100.00,NNW,342,4.0,7.0,96,0.00,,,0.00,9.000000,,2013-09-07 12:42:00,
2013-09-07 07:52:00,67.0,66.0,-100.00,NNW,342,4.0,7.0,96,0.00,,,0.00,9.000000,,2013-09-07 12:52:00,
2013-09-07 08:02:00,67.0,66.0,-100.00,NNW,342,4.0,7.0,96,0.00,,,0.00,9.000000,,2013-09-07 13:02:00,
2013-09-07 08:42:00,73.0,68.0,-100.00,North,4,3.0,6.0,83,0.00,,,0.00,113.000000,,2013-09-07 13:42:00,
2013-09-07 08:52:00,73.0,68.0,-100.00,North,4,3.0,6.0,83,0.00,,,0.00,113.000000,,2013-09-07 13:52:00,
2013-09-07 09:02:00,73.0,68.0,-100.00,North,4,3.0,6.0,83,0.00,,,0.00,113.000000,,2013-09-07 14:02:00,
2013-09-07 09:42:00,78.0,69.0,-100.00,NNE,17,6.0,11.0,73,0.00,,,0.00,275.000000,,2013-09-07 14:42:00,
2013-09-07 09:52:00,78.0,69.0,-100.00,NNE,17,6.0,11.0,73,0.00,,,0.00,275.000000,,2013-09-07 14:52:00,
2013-09-07 10:02:00,78.0,69.0,-100.00,NNE,17,6.0,11.0,73,0.00,,,0.00,275.000000,,2013-09-07 15:02:00,
2013-09-07 10:44:00,82.0,69.0,-100.00,North,10,4.0,12.0,66,0.00,,,0.00,375.000000,,2013-09-07 15:44:00,
2013-09-07 10:54:00,82.0,69.0,-100.00,North,10,4.0,12.0,66,0.00,,,0.00,375.000000,,2013-09-07 15:54:00,
2013-09-07 11:03:00,82.0,69.0,-100.00,North,10,4.0,12.0,66,0.00,,,0.00,375.000000,,2013-09-07 16:03:00,
2013-09-07 11:43:00,86.0,67.0,-100.00,ENE,63,9.0,15.0,53,0.00,,,0.00,599.000000,,2013-09-07 16:43:00,
2013-09-07 11:53:00,86.0,67.0,-100.00,ENE,63,9.0,15.0,53,0.00,,,0.00,599.000000,,2013-09-07 16:53:00,
2013-09-07 12:04:00,86.0,67.0,-100.00,ENE,63,9.0,15.0,53,0.00,,,0.00,599.000000,,2013-09-07 17:04:00,
2013-09-07 12:43:00,86.0,65.0,-100.00,NE,34,6.0,12.0,49,0.00,,,0.00,549.000000,,2013-09-07 17:43:00,
2013-09-07 12:52:00,86.0,65.0,-100.00,NE,34,6.0,12.0,49,0.00,,,0.00,549.000000,,2013-09-07 17:52:00,
2013-09-07 13:01:00,86.0,65.0,-100.00,NE,34,6.0,12.0,49,0.00,,,0.00,549.000000,,2013-09-07 18:01:00,
2013-09-07 13:43:00,87.0,66.0,-100.00,North,8,6.0,13.0,50,0.00,,,0.00,667.000000,,2013-09-07 18:43:00,
2013-09-07 13:52:00,87.0,66.0,-100.00,North,8,6.0,13.0,50,0.00,,,0.00,667.000000,,2013-09-07 18:52:00,
2013-09-07 14:02:00,87.0,66.0,-100.00,North,8,6.0,13.0,50,0.00,,,0.00,667.000000,,2013-09-07 19:02:00,
2013-09-07 14:42:00,87.0,68.0,-100.00,NNE,22,6.0,18.0,53,0.00,,,0.00,619.000000,,2013-09-07 19:42:00,
2013-09-07 14:52:00,87.0,68.0,-100.00,NNE,22,6.0,18.0,53,0.00,,,0.00,619.000000,,2013-09-07 19:52:00,
2013-09-07 15:02:00,87.0,68.0,-100.00,NNE,22,6.0,18.0,53,0.00,,,0.00,619.000000,,2013-09-07 20:02:00,
2013-09-07 15:42:00,90.0,67.0,-100.00,NE,42,7.0,15.0,47,0.00,,,0.00,615.000000,,2013-09-07 20:42:00,
2013-09-07 15:53:00,90.0,67.0,-100.00,NE,42,7.0,15.0,47,0.00,,,0.00,615.000000,,2013-09-07 20:53:00,
2013-09-07 16:02:00,90.0,67.0,-100.00,NE,42,7.0,15.0,47,0.00,,,0.00,615.000000,,2013-09-07 21:02:00,
2013-09-07 16:44:00,87.0,68.0,-100.00,NE,38,7.0,14.0,53,0.00,,,0.00,434.000000,,2013-09-07 21:44:00,
2013-09-07 16:54:00,87.0,68.0,-100.00,NE,38,7.0,14.0,53,0.00,,,0.00,434.000000,,2013-09-07 21:54:00,
2013-09-07 17:04:00,87.0,68.0,-100.00,NE,38,7.0,14.0,53,0.00,,,0.00,434.000000,,2013-09-07 22:04:00,
2013-09-07 17:43:00,86.0,66.0,-100.00,ENE,57,11.0,16.0,52,0.00,,,0.00,419.000000,,2013-09-07 22:43:00,
2013-09-07 17:53:00,86.0,66.0,-100.00,ENE,57,11.0,16.0,52,0.00,,,0.00,419.000000,,2013-09-07 22:53:00,
2013-09-07 18:03:00,86.0,66.0,-100.00,ENE,57,11.0,16.0,52,0.00,,,0.00,419.000000,,2013-09-07 23:03:00,
2013-09-07 18:42:00,86.0,65.0,-100.00,NE,50,8.0,14.0,49,0.00,,,0.00,242.000000,,2013-09-07 23:42:00,
2013-09-07 18:53:00,86.0,65.0,-100.00,NE,50,8.0,14.0,49,0.00,,,0.00,242.000000,,2013-09-07 23:53:00,
2013-09-07 19:02:00,86.0,65.0,-100.00,NE,50,8.0,14.0,49,0.00,,,0.00,242.000000,,2013-09-08 00:02:00,
2013-09-07 19:43:00,80.0,67.0,-100.00,NE,47,8.0,16.0,65,0.00,,,0.00,69.000000,,2013-09-08 00:43:00,
2013-09-07 19:52:00,80.0,67.0,-100.00,NE,47,8.0,16.0,65,0.00,,,0.00,69.000000,,2013-09-08 00:52:00,
2013-09-07 20:01:00,80.0,67.0,-100.00,NE,47,8.0,16.0,65,0.00,,,0.00,69.000000,,2013-09-08 01:01:00,
2013-09-07 20:42:00,74.0,65.0,-100.00,ENE,75,12.0,24.0,73,0.00,,,0.00,6.000000,,2013-09-08 01:42:00,
2013-09-07 20:52:00,74.0,65.0,-100.00,ENE,75,12.0,24.0,73,0.00,,,0.00,6.000000,,2013-09-08 01:52:00,
2013-09-07 21:02:00,74.0,65.0,-100.00,ENE,75,12.0,24.0,73,0.00,,,0.00,6.000000,,2013-09-08 02:02:00,
2013-09-07 21:43:00,71.0,57.0,-100.00,ENE,77,13.0,23.0,62,0.00,,,0.00,0.000000,,2013-09-08 02:43:00,
2013-09-07 21:52:00,71.0,57.0,-100.00,ENE,77,13.0,23.0,62,0.00,,,0.00,0.000000,,2013-09-08 02:52:00,
2013-09-07 22:02:00,71.0,57.0,-100.00,ENE,77,13.0,23.0,62,0.00,,,0.00,0.000000,,2013-09-08 03:02:00,
2013-09-07 22:44:00,67.0,55.0,-100.00,ENE,66,10.0,16.0,66,0.00,,,0.00,0.000000,,2013-09-08 03:44:00,
2013-09-07 22:54:00,67.0,55.0,-100.00,ENE,66,10.0,16.0,66,0.00,,,0.00,0.000000,,2013-09-08 03:54:00,
2013-09-07 23:02:00,-999.0,-99.9,-100.00,ENE,66,10.0,16.0,-999,-99.99,,,-99.99,0.000000,,2013-09-08 04:02:00,
2013-09-07 23:43:00,65.0,54.0,-100.00,ENE,63,8.0,16.0,67,0.00,,,0.00,0.000000,,2013-09-08 04:43:00,
2013-09-07 23:54:00,65.0,54.0,-100.00,ENE,63,8.0,16.0,67,0.00,,,0.00,0.000000,,2013-09-08 04:54:00,